Regional Weather Roundup
Issued by NWS Burlington, VT

Current Version | Previous Version | Graphics & Text | Print | Product List | Glossary Off
Versions: 1 2 3 4 5 6 7 8 9 10 11 12 13 14 15 16 17 18 19 20 21 22 23 24 25 26 27 28 29 30 31 32 33 34 35 36 37 38 39 40 41 42 43 44 45 46 47 48 49 50

000
ASUS41 KBTV 061710
RWRBTV
VERMONT REGIONAL WEATHER ROUNDUP
NATIONAL WEATHER SERVICE BURLINGTON VT
1200 PM EST TUE DEC 06 2016

NOTE: "FAIR" INDICATES FEW OR NO CLOUDS BELOW 12,000 FEET WITH NO
SIGNIFICANT WEATHER AND/OR OBSTRUCTIONS TO VISIBILITY.

* THESE REPORTS ARE NOT UNDER NWS QUALITY CONTROL AND/OR DO NOT
  REPORT WEATHER SUCH AS PRECIPITATION AND FOG.

VTZ001>019-061800-
_____VERMONT_____


CITY           SKY/WX    TMP DP  RH WIND       PRES   REMARKS
BURLINGTON     CLOUDY    34  26  72 CALM      30.13F
MONTPELIER     CLOUDY    31  26  82 CALM      30.12F
MORRISVILLE    CLOUDY    30  23  75 CALM      30.13S
ST. JOHNSBURY*   N/A     33  23  66 MISG      30.09F
LYNDONVILLE*   CLOUDY    29  23  76 CALM      30.10S
MIDDLEBURY*    CLOUDY    35  28  77 CALM      30.11F
RUTLAND*       MOSUNNY   36  29  75 CALM      30.08F
SPRINGFIELD    CLOUDY    37  30  75 CALM      30.09F
HIGHGATE*      CLOUDY    32  26  78 CALM      30.13F
NEWPORT*       CLOUDY    28  21  75 CALM      30.10F
BENNINGTON     MOSUNNY   40  30  67 N5        30.05F
SUTTON*          N/A     28 N/A N/A MISG        N/A

_____LAKE CHAMPLAIN_____


CITY           SKY/WX    TMP DP  RH WIND       PRES   REMARKS
BURTON ISLAND*   N/A     32  28  86 E5          N/A  WCI  27
COLCHESTER RF*   N/A     34  30  86 E5          N/A  WCI  30
DIAMOND ISL*     N/A     34  30  86 SE5         N/A  WCI  30

$$

NYZ007-026>031-035-052-083-087-061800-
_____NORTHERN NEW YORK_____


CITY           SKY/WX    TMP DP  RH WIND       PRES   REMARKS
PLATTSBURGH    CLOUDY    33  27  78 CALM      30.13F
SARANAC LAKE   SUNNY     32  26  78 CALM      30.01F
MASSENA        MOSUNNY   35  28  75 CALM      30.10F
OGDENSBURG*    SUNNY     41  30  65 SE5       30.07F
POTSDAM*       SUNNY     36  30  80 CALM      30.07F
WATERTOWN      MOSUNNY   40  30  67 CALM      30.04F
FT DRUM        PTSUNNY   37  29  74 E10       30.02F WCI  30
ALBANY         PTSUNNY   43  29  57 N6        30.09F
GLENS FALLS    CLOUDY    36  29  75 E8        30.11F WCI  30

$$
NHZ002-005-011-061800-
_____NEW HAMPSHIRE_____


CITY           SKY/WX    TMP DP  RH WIND       PRES   REMARKS
LEBANON        MOSUNNY   39  29  67 NE3       30.09F
KEENE          MOSUNNY   37  30  75 NE5       30.08F
MT WASHINGTON  PTSUNNY   19   7  58 NW36        N/A  WCI  -1
PLYMOUTH         N/A     37  26  64 W10       30.09F WCI  29
WHITEFIELD     CLOUDY    30  22  72 CALM      30.09S

$$

_____REGIONAL QUEBEC LOCATIONS_____


CITY           SKY/WX    TMP DP  RH WIND       PRES   REMARKS
MONTREAL       PTSUNNY   32  25  74 CALM      30.12F
QUEBEC CITY    MOSUNNY   25  18  74 W15       30.13F WCI  12
SHERBROOKE     CLOUDY    27  23  86 CALM      30.10F

_____REGIONAL ONTARIO LOCATIONS_____


CITY           SKY/WX    TMP DP  RH WIND       PRES   REMARKS
OTTAWA         MOSUNNY   32  27  80 E7        30.07F WCI  26

______KEY______
VSB  - VISIBILITY IN MILES
WCI  - WIND CHILL INDEX
HX   - HEAT INDEX
$$
NNNN



USA.gov is the U.S. government's official web portal to all federal, state and local government web resources and services.